Location: Holbach
(51.5399°N, 10.6036°E)
Time: 10:22:11
(UTC+00:00)

Cosmos 1092 Rocket - Pass Details

Date: 18 June 2021
Orbit: 955 x 994 km, 82.9° (Epoch: 28 July)

Event Time Altitude Azimuth Distance (km) Brightness Sun altitude
Rises 23:01:29 0° 119° (ESE) 3,629 6.7 -14.9°
Reaches altitude 10° 23:06:37 10° 82° (E) 2,690 6.4 -15.0°
Maximum altitude 23:07:40 10° 72° (ENE) 2,658 6.5 -15.0°
Drops below altitude 10° 23:08:43 10° 62° (ENE) 2,694 6.7 -15.0°
Sets 23:13:51 0° 25° (NNE) 3,652 8.2 -15.0°
